EW6230 Weather Reports


Display with metric or nautical units.
time (UTC)temp
F
wind
direction
speed
MPH
gust
MPH
rain 1hr
in
rain 24hr
in
rain mn
in
humidity
%
barometer
mb
20260503221533 77 92 0.0 0.0 0.00 0.00 0.00 35 1008.8
20260503220030 76 126 0.0 0.0 0.00 0.00 0.00 36 1009.1
20260503214537 76 70 0.0 0.0 0.00 0.00 0.00 37 1009.3
20260503213027 76 92 0.0 0.0 0.00 0.00 0.00 36 1009.3
20260503211525 77 84 0.0 0.0 0.00 0.00 0.00 36 1009.4
20260503210024 79 355 0.0 0.0 0.00 0.00 0.00 35 1009.4
20260503204522 79 324 0.0 0.0 0.00 0.00 0.00 32 1009.5
20260503203032 80 323 0.0 0.0 0.00 0.00 0.00 32 1009.4
20260503201519 79 71 0.0 0.0 0.00 0.00 0.00 35 1009.6
20260503200016 79 91 0.0 0.0 0.00 0.00 0.00 35 1009.8
20260503194513 78 305 0.0 0.0 0.00 0.00 0.00 36 1010.0
20260503193021 76 305 0.0 0.0 0.00 0.00 0.00 36 1010.2
20260503191520 77 305 0.0 0.0 0.00 0.00 0.00 34 1010.4
20260503190018 78 49 0.0 0.0 0.00 0.00 0.00 36 1010.5
20260503184506 78 75 0.0 0.0 0.00 0.00 0.00 36 1010.5
20260503183003 78 76 0.0 0.0 0.00 0.00 0.00 37 1010.7
20260503181559 76 76 0.0 0.0 0.00 0.00 0.00 40 1010.9
20260503174555 75 75 0.0 0.0 0.00 0.00 0.00 41 1011.2
20260503173055 74 89 0.0 0.0 0.00 0.00 0.00 39 1011.3
20260503171551 75 323 0.0 0.0 0.00 0.00 0.00 42 1011.5
20260503170104 73 325 0.0 0.0 0.00 0.00 0.00 41 1011.6
20260503081539 58 56 0.0 0.0 0.00 0.00 0.00 59 1011.3
20260503071526 58 56 0.0 0.0 0.00 0.00 0.00 57 1011.3
20260503054501 60 60 0.0 0.0 0.00 0.00 0.00 59 1011.2
20260503053057 60 82 0.0 0.0 0.00 0.00 0.00 59 1011.2
20260503051553 60 72 0.0 0.0 0.00 0.00 0.00 59 1011.3
20260503050048 60 71 0.0 0.0 0.00 0.00 0.00 58 1011.3
20260503044546 61 76 0.0 0.0 0.00 0.00 0.00 58 1011.2
20260503043050 62 76 0.0 0.0 0.00 0.00 0.00 57 1011.1
20260503041535 62 77 0.0 0.0 0.00 0.00 0.00 57 1011.0
20260503040033 63 76 0.0 0.0 0.00 0.00 0.00 55 1010.8
20260503034526 64 77 0.0 0.0 0.00 0.00 0.00 54 1010.7
20260503033021 65 77 0.0 0.0 0.00 0.00 0.00 52 1010.5
20260503031517 67 77 0.0 0.0 0.00 0.00 0.00 48 1010.4
20260503030013 68 77 0.0 0.0 0.00 0.00 0.00 43 1010.4
20260503024508 69 77 0.0 0.0 0.00 0.00 0.00 40 1010.4
20260503023003 70 74 0.0 0.0 0.00 0.00 0.00 38 1010.4
20260503021600 70 75 0.0 0.0 0.00 0.00 0.00 37 1010.5
20260503020055 71 75 0.0 0.0 0.00 0.00 0.00 36 1010.6
20260503014600 71 75 0.0 0.0 0.00 0.00 0.00 35 1010.6
20260503013048 71 75 0.0 0.0 0.00 0.00 0.00 38 1010.8
20260503011542 72 75 0.0 0.0 0.00 0.00 0.00 38 1010.9
20260503010038 72 75 0.0 0.0 0.00 0.00 0.00 38 1011.0
20260503004536 73 74 0.0 0.0 0.00 0.00 0.00 37 1010.9
20260503003042 75 74 0.0 0.0 0.00 0.00 0.00 36 1011.0
20260503001524 76 75 0.0 0.0 0.00 0.00 0.00 36 1011.0
20260503000024 78 63 0.0 0.0 0.00 0.00 0.00 34 1011.1
20260502234514 79 79 0.0 0.0 0.00 0.00 0.00 33 1011.1
20260502233026 78 80 0.0 0.0 0.00 0.00 0.00 35 1011.4
20260502231505 77 87 0.0 0.0 0.00 0.00 0.00 35 1011.6
20260502230104 77 165 0.0 0.0 0.00 0.00 0.00 35 1011.8
20260502224557 76 162 0.0 0.0 0.00 0.00 0.00 35 1012.2
20260502223052 76 95 0.0 0.0 0.00 0.00 0.00 34 1012.5